Location: Bagnara
(41.0500°N, 14.7833°E)
Time: 15:23:56
(UTC+00:00)

CZ-2C R/B - Pass Details

Date: 20 June 2021
Orbit: 667 x 785 km, 98.2° (Epoch: 30 July)

Event Time Altitude Azimuth Distance (km) Brightness Sun altitude
Rises 02:09:17 0° 21° (NNE) 3,196 7.1 -12.3°
Reaches altitude 10° 02:11:47 10° 30° (NNE) 2,249 6.3 -12.0°
Maximum altitude 02:16:20 36° 97° (E) 1,123 3.7 -11.4°
Drops below altitude 10° 02:20:43 10° 164° (SSE) 2,164 4.6 -10.8°
Sets 02:23:04 0° 173° (S) 3,059 5.3 -10.5°
